Flag for Poland Weather past 2 weeks in Wroclaw, Poland

73 °F

Passing clouds.

Feels Like: 77 °F
Forecast: 50 / 70 °F
Wind: 6 mph from West

Location: Wroclaw Ii

Current Time: Oct 4, 2015 at 1:40:30 PM

Latest Report: Oct 4, 2015 at 1:00 PM

Visibility: N/A

Pressure: 30.01 "Hg

Humidity: 44%

Dew point: 50 °F

Location of WroclawLocation

Historic Weather in Wroclaw — Graph


Wroclaw temperature yesterday

Maximum temperature yesterday: 73 °F (at 4:00 PM)
Minimum temperature yesterday: 37 °F (at 6:00 AM)
Average temperature yesterday: 57 °F

Past Weeks' High & Low Weather Summary

High75 °F (Sep 19, 2:30 PM)94% (Sep 20, 6:30 AM)30.63 "Hg (Sep 20, 6:30 AM)
Low32 °F (Oct 1, 6:00 AM)29% (Oct 2, 3:00 PM)29.71 "Hg (Sep 23, 2:30 AM)
Average56 °F65%30.22 "Hg
* Reported Sep 19 12:00 Noon — Oct 4 12:30 PM, Wroclaw, Weather by CustomWeather, © 2015

Note: Actual official high and low records may vary slightly from our data, if they occured in-between our weather recording intervals... More about our weather records


Wroclaw weather history for previous 24 hours

Time TempWeatherWind HumidityBarometerVisibility
12:30 PM
Sun, Oct 4
73 °FPassing clouds.6 mph47%30.01 "HgN/A
12:00 PM72 °FPassing clouds.6 mph50%30.01 "HgN/A
11:30 AM70 °FPassing clouds.6 mph53%30.01 "HgN/A
11:00 AM70 °FPassing clouds.6 mph57%30.01 "HgN/A
10:30 AM68 °FPassing clouds.6 mph60%30.01 "HgN/A
10:00 AM66 °FPassing clouds.6 mph64%30.01 "HgN/A
9:30 AM63 °FPassing clouds.3 mph73%30.01 "HgN/A
9:00 AM61 °FSunny.1 mph77%30.01 "Hg10 mi
8:30 AM55 °FSunny.No wind88%30.01 "Hg10 mi
8:00 AM50 °FFog.1 mph88%29.98 "HgN/A
7:30 AM48 °FFog.1 mph94%29.98 "HgN/A
7:00 AM48 °FFog.2 mph87%29.98 "HgN/A
6:30 AM48 °FFog.1 mph94%29.98 "HgN/A
6:00 AM48 °FFog.5 mph94%29.98 "HgN/A
5:30 AM50 °FFog.2 mph94%29.98 "HgN/A
5:00 AM52 °FPassing clouds.3 mph88%29.98 "HgN/A
4:30 AM54 °FPassing clouds.3 mph88%29.98 "HgN/A
4:00 AM54 °FClear.3 mph88%29.98 "Hg10 mi
3:30 AM54 °FClear.2 mph88%29.98 "Hg10 mi
3:00 AM54 °FClear.2 mph88%29.98 "Hg10 mi
2:30 AM55 °FClear.2 mph82%29.98 "Hg10 mi
2:00 AM59 °FPassing clouds.3 mph77%29.98 "HgN/A
1:30 AM61 °FClear.5 mph72%29.98 "Hg10 mi
1:00 AM59 °FPassing clouds.5 mph72%29.98 "HgN/A
12:30 AM63 °FPassing clouds.6 mph68%29.98 "HgN/A
11:30 PM
Sat, Oct 3
64 °FPassing clouds.7 mph64%30.01 "HgN/A
11:00 PM64 °FPassing clouds.7 mph64%30.01 "HgN/A
10:30 PM64 °FClear.7 mph60%30.01 "Hg10 mi
10:00 PM64 °FPassing clouds.6 mph60%30.01 "HgN/A
9:30 PM64 °FPassing clouds.6 mph64%30.01 "HgN/A
9:00 PM66 °FPassing clouds.5 mph60%30.01 "HgN/A
8:30 PM68 °FPassing clouds.8 mph56%30.01 "HgN/A
8:00 PM66 °FPassing clouds.7 mph56%30.01 "HgN/A
7:30 PM68 °FPassing clouds.5 mph53%30.01 "HgN/A
7:00 PM68 °FPassing clouds.3 mph53%30.01 "HgN/A
6:30 PM68 °FPassing clouds.3 mph49%30.01 "HgN/A
6:00 PM70 °FSunny.2 mph46%30.01 "Hg10 mi
5:30 PM72 °FPassing clouds.3 mph41%30.01 "HgN/A
5:00 PM72 °FPassing clouds.7 mph41%30.01 "HgN/A
4:30 PM73 °FSunny.9 mph38%30.04 "Hg10 mi
4:00 PM73 °FPassing clouds.7 mph38%30.04 "HgN/A
3:30 PM72 °FSunny.10 mph38%30.04 "Hg10 mi
3:00 PM72 °FPassing clouds.12 mph38%30.04 "HgN/A
2:30 PM72 °FSunny.13 mph38%30.07 "Hg10 mi
2:00 PM72 °FPassing clouds.14 mph38%30.07 "HgN/A
1:30 PM70 °FSunny.13 mph40%30.09 "Hg10 mi
1:00 PM70 °FPassing clouds.12 mph38%30.09 "HgN/A
Weather by CustomWeather, © 2015

See weather overviewHow to use our weather pages